Regional Weather Roundup
Issued by NWS Huntsville, AL

Home | Current Version | Previous Version | Text Only | Print | Product List | Glossary On
Versions: 1 2 3 4 5 6 7 8 9 10 11 12 13 14 15 16 17 18 19 20 21 22 23 24 25 26 27 28 29 30 31 32 33 34 35 36 37 38 39 40 41 42 43 44 45 46 47 48 49 50
000
ASUS44 KHUN 270910
RWRHUN

WEATHER ROUNDUP FOR THE TENNESSEE VALLEY
NATIONAL WEATHER SERVICE HUNTSVILLE AL
400 AM CDT SUN MAY 27 2018

ALZ001>004-271000-
NORTHWEST ALABAMA

CITY           SKY/WX    TMP DP  RH WIND       PRES   REMARKS
COURTLAND HCN    N/A     70 N/A N/A CALM        N/A
RUSSELLVILLE     N/A     68 N/A N/A MISG        N/A
SHOALS AIRPORT FAIR      71  69  93 E3        29.90S
SHOALS TVA RES   N/A     70 N/A N/A MISG        N/A
$$

ALZ005>007-016-271000-
NORTH CENTRAL ALABAMA

CITY           SKY/WX    TMP DP  RH WIND       PRES   REMARKS
CULLMAN AG STN   N/A     68 N/A N/A CALM        N/A
DECATUR AP     FAIR      69  68  96 CALM      29.91R
HUNTSVILLE AP  FAIR      72  70  93 E3        29.91R
MERIDIANVILLE  CLEAR     69  68  94 CALM      29.92S
REDSTONE ARSN  CLOUDY    70  68  93 CALM      29.90R
VINEMONT AP      N/A     67  66  97 CALM      29.94S
$$

ALZ008>010-271000-
NORTHEAST ALABAMA

CITY           SKY/WX    TMP DP  RH WIND       PRES   REMARKS
FORT PAYNE     MOCLDY    64  63  94 NE3       29.93S
SCOTTSBORO AP  CLOUDY    70  70 100 CALM      29.93R
SCOTTSBORO HCN   N/A     68 N/A N/A MISG        N/A
VALLEY HEAD      N/A     66 N/A N/A MISG        N/A
$$

TNZ076-096-097-271000-
SOUTHEASTERN MIDDLE TENNESSEE

CITY           SKY/WX    TMP DP  RH WIND       PRES   REMARKS
TULLAHOMA      MOCLDY    68  66  94 CALM      29.93R
WINCHESTER     CLOUDY    70  68  94 SE5       29.93S
$$

...SURROUNDING SITES...

CITY           SKY/WX    TMP DP  RH WIND       PRES   REMARKS
ATLANTA        MOCLDY    70  66  87 CALM      29.95R
ANNISTON       CLOUDY    72  70  93 NE3       29.92S
BIRMINGHAM     MOCLDY    70  69  97 CALM      29.93R
CHATTANOOGA    FAIR      70  68  93 E3        29.94S
CORINTH          N/A     70  70 100 CALM      29.87S FOG
DALTON         FAIR      68  68 100 CALM      29.96R
GADSDEN        FAIR      69  69 100 CALM      29.93R
GOLDEN TRNGL   FAIR      69  68  96 W3        29.88S
HALEYVILLE       N/A    N/A N/A N/A MISG        N/A
JACKSON TN     FAIR      71  71 100 CALM      29.89R
MEMPHIS        FAIR      70  69  97 VRB5      29.87R
NASHVILLE      FAIR      70  67  90 SE3       29.91R
ROME           FAIR      71  71 100 N3        29.93R
SAVANNAH       CLEAR     68  68 100 CALM      29.88R
SELMER         CLEAR     68  68 100 CALM      29.88S
TUPELO         FAIR     N/A N/A N/A CALM      29.88S
TUSCALOOSA     FAIR      72  68  87 CALM      29.88S
$$

...GULF COAST WEATHER...

CITY           SKY/WX    TMP DP  RH WIND       PRES   REMARKS
GULFPORT       CLOUDY    71  69  93 N6        29.81S
PASCAGOULA     FAIR      72  69  90 MISG      29.82S
MOBILE         FAIR      72  70  93 NE5       29.84F
GULF SHORES    FAIR      71  71  98 N9        29.82S
PENSACOLA      MOCLDY    76  70  82 NE8       29.81
DESTIN         FAIR      74  70  87 NE8       29.83S
PANAMA CITY    MOCLDY    73  69  89 NE9       29.82S
APPALACHICOLA  LGT RAIN  72  71  97 E6        29.81F
$$




USA.gov is the U.S. government's official web portal to all federal, state and local government web resources and services.